Location: Unspecified
(0.0000°N, 0.0000°E)
Time: 20:00:59
(UTC+00:00)

BlueWalker 3 - Pass Details

Date: 22 March 2023
Orbit: 497 x 514 km, 53.2° (Epoch: 29 March)

Event Time Altitude Azimuth Distance (km) Brightness Sun altitude
Rises 20:16:41 0° 252° (WSW) 2,616 6.6 -32.5°
Reaches altitude 10° 20:20:39 10° 292° (WNW) 1,722 5.4 -33.4°
Maximum altitude 20:21:30 11° 305° (NW) 1,684 5.2 -33.7°
Enters shadow 20:21:42 11° 308° (NW) 1,685 5.1 -33.7°
